Weather Roundup
Issued by NWS Chicago, IL

Home | Current Version | Previous Version | Text Only | Print | Product List | Glossary On
Versions: 1 2 3 4 5 6 7 8 9 10 11 12 13 14 15 16 17 18 19 20 21 22 23 24 25 26 27 28 29 30 31 32 33 34 35 36 37 38 39 40 41 42 43 44 45 46 47 48 49 50
000
NZUS59 KLOT 230610
HRRLOT

CHICAGO AREA WEATHER ROUNDUP
NATIONAL WEATHER SERVICE CHICAGO/ROMEOVILLE IL
100 AM CDT SAT AUG 23 2014

NOTE: "FAIR" INDICATES FEW OR NO CLOUDS BELOW 12,000 FEET WITH NO
SIGNIFICANT WEATHER AND/OR OBSTRUCTIONS TO VISIBILITY.

* THESE STATIONS ARE NOT UNDER NWS QUALITY CONTROL. THEY ALSO MAY NOT
  REPORT WEATHER SUCH AS PRECIPITATION OR FOG.

ILZ005-006-012>014-019>023-230700-
NORTHEAST ILLINOIS

CITY           SKY/WX    TMP DP  RH WIND       PRES   REMARKS
OHARE          MOCLDY    77  70  79 CALM      29.96F
6HR MIN TEMP:  75; 6HR MAX TEMP:  82;

MIDWAY         MOCLDY    79  74  84 SW3       29.96F HX  82
6HR MIN TEMP:  78; 6HR MAX TEMP:  83;

AURORA         MOCLDY    75  72  90 CALM      29.98S FOG
6HR MIN TEMP:  74; 6HR MAX TEMP:  82;

LANSING*         N/A     72  71  98 CALM      29.98S
JOLIET*        MOCLDY    74  72  92 CALM      29.98S
WAUKEGAN       FOG       72  71  97 CALM      29.99S VSB 3/4
6HR MIN TEMP:  72; 6HR MAX TEMP:  75;

DUPAGE AIRPORT   N/A     74  72  93 CALM      29.98S
6HR MIN TEMP:  74; 6HR MAX TEMP:  81;

WHEELING         N/A     75  72  90 NE5       29.99S FOG
6HR MIN TEMP:  75; 6HR MAX TEMP:  81;

KANKAKEE*        N/A     72  71  98 CALM      29.98F
MORRIS*          N/A     74  74 100 CALM      29.97S
LEWIS AIRPORT*   N/A     73  72  99 SE3       29.98S FOG
NORTHERLY IS     N/A     73  71  93 NW2         N/A
$$

WIZ051-052-058>065-066-070>072-230700-
SOUTHEAST WISCONSIN

CITY           SKY/WX    TMP DP  RH WIND       PRES   REMARKS
MILWAUKEE      FOG       70  68  93 E3        30.00S VSB 1/8
6HR MIN TEMP:  69; 6HR MAX TEMP:  71;

KENOSHA*       FOG       71  71 100 NE7       30.00S VSB 1/2
RACINE*        FOG       70  69  97 E3        30.01F VSB 1/4
BURLINGTON     CLOUDY    70  70  99 E5        29.99F FOG
WAUKESHA       CLOUDY    68  68 100 E5        30.01S FOG
WEST BEND      FOG       68  66  94 CALM      30.00F VSB 1/4
$$

INZ001>003-010>013-019-020-230700-
NORTHWEST INDIANA

CITY           SKY/WX    TMP DP  RH WIND       PRES   REMARKS
GARY*            N/A     75  74  95 CALM      29.98S
6HR MIN TEMP:  74; 6HR MAX TEMP:  83;

MICHIGAN CITY* NOT AVBL
RENSSELAER*    NOT AVBL
VALPARAISO     FOG       70  68  93 CALM      29.99F VSB 3/4
$$

LMZ740>746-230700-
SOUTHERN LAKE MICHIGAN

STATION/POSITION TIME  SKY/WX   TEMP WIND        PRES    VSBY
                                AIR  DIR/SP/G
                 (UTC)          (F)  (DEG/KT/KT) (MB)    (MI)
HARRISON CRIB    0600            73   80/  7/  8   N/A
BURNHAM HARBOR   0600            73  330/  1/  3   N/A
CALUMET HARBOR   0600            77   CALM  /  2 1013.7F
BURNS HARBOR     NOT AVBL
MICHIGAN CITY    0600            75   70/  1/  2   N/A
$$

ABBREVIATIONS USED IN REMARKS
   TC - TEMPERATURE IN CELSIUS
  WCI - WIND CHILL INDEX
   HX - HEAT INDEX
  VSB - VISIBILITY
$$


USA.gov is the U.S. government's official web portal to all federal, state and local government web resources and services.